Topeka, KS

2:08 PM CST on January 20, 2017 (GMT -0600)
Forbes

Weather History for KFOE - March, 2013

Change the Weather History Date:

Wednesday, March 20, 2013

  Actual Average Record
Temperature  
Mean Temperature 33 °F -  
Max Temperature 42 °F 57 °F 85 °F (1953)
Min Temperature 24 °F 33 °F 18 °F (1951)
Degree Days  
Heating Degree Days 32    
Moisture  
Dew Point 16 °F    
Average Humidity 55    
Maximum Humidity 93    
Minimum Humidity 27    
Precipitation  
Precipitation 0.00 in - - ()
Sea Level Pressure  
Sea Level Pressure 30.31 in    
Wind  
Wind Speed 8 mph (NNW)    
Max Wind Speed 18 mph    
Max Gust Speed 33 mph    
Visibility 10 miles    
Events      
Averages and records for this station are not official NWS values.
T = Trace of Precipitation, MM = Missing Value Source: NWS Daily Summary

Daily Weather History Graph

Daily Weather History Graph

Search for Another Location

Airport or City:

Trip Planner

Search our weather history database for the weather conditions in past years. The results will help you decide how hot, cold, wet, or windy it might be!

Date:

Astronomy

Mar. 20, 2013 Rise Set
Actual Time 7:25 AM CDT 7:34 PM CDT
Civil Twilight 6:59 AM CDT 8:01 PM CDT
Nautical Twilight 6:27 AM CDT 8:32 PM CDT
Astronomical Twilight 5:56 AM CDT 9:04 PM CDT
Moon 1:13 PM CDT 3:03 AM CDT
Length of Visible Light 13h 02m
Length of Day
12h 09m
First Quarter, 59% of the Moon is Illuminated
Mar 20
First Quarter
Mar 27
Full
Apr 2
Last Quarter
Apr 10
New
Apr 18
First Quarter

Hourly Weather History & Observations

Time (CDT) Temp. Windchill Dew Point Humidity Pressure Visibility Wind Dir Wind Speed Gust Speed Precip Events Conditions
12:53 AM 32.0 °F - 30.0 °F 92% 30.29 in 10.0 mi Calm Calm - N/A   Mostly Cloudy
1:41 AM 35.6 °F 29.9 °F 33.8 °F 93% 30.29 in 10.0 mi North 6.9 mph - 0.00 in   Overcast
1:53 AM 36.0 °F 30.3 °F 32.0 °F 86% 30.32 in 10.0 mi NNW 6.9 mph - 0.00 in   Overcast
2:03 AM 37.4 °F 31.4 °F 30.2 °F 75% 30.29 in 10.0 mi North 8.1 mph - N/A   Overcast
2:53 AM 34.0 °F 23.0 °F 24.1 °F 67% 30.34 in 10.0 mi North 18.4 mph 25.3 mph N/A   Mostly Cloudy
3:53 AM 30.9 °F 21.2 °F 21.9 °F 69% 30.35 in 10.0 mi North 12.7 mph 19.6 mph N/A   Scattered Clouds
4:53 AM 28.9 °F 16.5 °F 15.1 °F 56% 30.37 in 10.0 mi North 18.4 mph 33.4 mph N/A   Clear
5:53 AM 28.0 °F 18.1 °F 17.1 °F 63% 30.39 in 10.0 mi North 11.5 mph 20.7 mph N/A   Overcast
6:53 AM 26.1 °F 14.5 °F 9.0 °F 49% 30.41 in 10.0 mi North 13.8 mph 24.2 mph N/A   Mostly Cloudy
7:53 AM 24.1 °F 11.0 °F 10.9 °F 57% 30.43 in 10.0 mi NNW 16.1 mph - N/A   Partly Cloudy
8:53 AM 25.0 °F 11.7 °F 12.9 °F 60% 30.44 in 10.0 mi NNW 17.3 mph 21.9 mph N/A   Clear
9:53 AM 27.0 °F 15.6 °F 12.9 °F 56% 30.43 in 10.0 mi North 13.8 mph - N/A   Clear
10:53 AM 28.9 °F 18.6 °F 12.9 °F 51% 30.44 in 10.0 mi North 12.7 mph - N/A   Clear
11:53 AM 32.0 °F 23.6 °F 14.0 °F 48% 30.43 in 10.0 mi NW 10.4 mph - N/A   Clear
12:53 PM 35.1 °F 26.4 °F 14.0 °F 42% 30.40 in 10.0 mi NNW 12.7 mph 21.9 mph N/A   Clear
1:53 PM 36.0 °F 31.1 °F 10.0 °F 34% 30.36 in 10.0 mi NNW 5.8 mph 19.6 mph N/A   Clear
2:53 PM 39.0 °F 30.6 °F 12.0 °F 33% 30.30 in 10.0 mi NNW 15.0 mph 23.0 mph N/A   Clear
3:53 PM 41.0 °F 33.9 °F 10.9 °F 29% 30.25 in 10.0 mi North 12.7 mph 21.9 mph N/A   Clear
4:53 PM 42.1 °F 38.4 °F 10.9 °F 28% 30.24 in 10.0 mi NW 5.8 mph 17.3 mph N/A   Clear
5:53 PM 42.1 °F 35.7 °F 10.0 °F 27% 30.21 in 10.0 mi NW 11.5 mph - N/A   Clear
6:53 PM 39.0 °F 35.7 °F 12.0 °F 33% 30.19 in 10.0 mi NW 4.6 mph - N/A   Clear
7:53 PM 34.0 °F - 12.0 °F 40% 30.18 in 10.0 mi Calm Calm - N/A   Clear
8:53 PM 30.9 °F - 14.0 °F 50% 30.19 in 10.0 mi Calm Calm - N/A   Clear
9:53 PM 26.1 °F - 18.0 °F 71% 30.17 in 10.0 mi Calm Calm - N/A   Clear
10:53 PM 27.0 °F 21.6 °F 16.0 °F 63% 30.16 in 10.0 mi ESE 4.6 mph - N/A   Clear
11:53 PM 28.0 °F 22.8 °F 12.0 °F 51% 30.14 in 10.0 mi East 4.6 mph - N/A   Clear